[[{"header":{"parameterUnit":"m.s-1","parameterCategory":1,"la1":30.2991,"la2":30.254,"lo1":-89.0895,"lo2":-89.0444,"dy":0.0017,"dx":0.0017,"nx":28,"ny":28,"refTime":"2023-09-15T21:00:00:Z","depth":0,"parameterNumber":2,"parameterNumberName":"U-component_of_WINDS"},"data":[0,0,0,0,0,0,0,0,0,0,0,0,0,0,0,0,0,0,0,0,0,0,0,0,0,0,0,0,0,0,0,0,0,0,0,0,0,0,0,0,0,0,0,0,0,0,0,0,0,0,0,0,0,0,0,0,0,0,1.7717,1.7718,0,1.7808,1.781,1.7811,1.779,1.7789,1.7787,1.7785,1.7884,1.7888,1.7893,0,0,0,0,0,0,0,0,0,0,0,0,0,1.7533,1.7536,1.7717,1.7718,1.7719,1.7808,1.781,1.7811,1.7791,1.7788,1.7786,1.7784,1.7883,1.7888,1.7893,0,0,0,0,0,0,0,0,0,0,0,0,0,1.7618,1.7538,1.7717,1.772,1.7721,1.7808,1.781,1.7811,1.7791,1.7788,1.7786,1.7783,1.7881,1.7887,1.7894,1.7985,0,0,1.7913,1.7916,0,0,0,0,0,0,0,0,1.7613,1.7624,1.7718,1.772,1.7721,1.7785,1.7781,1.787,1.7792,1.7765,1.7785,1.7782,1.7854,1.7862,1.7885,1.799,1.7994,1.7914,1.7918,1.792,1.7922,0,0,0,0,0,0,0,1.7607,1.762,1.7753,1.772,1.7722,1.7719,1.7728,1.7798,1.7823,1.7767,1.7766,1.7776,1.7854,1.7879,1.7887,1.7995,1.7914,1.7919,1.7923,1.7926,1.8183,1.8186,0,0,0,0,0,0,1.7599,1.7616,1.7751,1.7756,1.7659,1.7725,1.7735,1.7767,1.7822,1.7828,1.7778,1.7775,1.7869,1.788,1.7891,1.8004,1.792,1.7926,1.793,1.818,1.8184,1.8187,0,0,0,0,0,0,1.7595,1.7611,1.7747,1.7686,1.7703,1.773,1.7767,1.7771,1.7795,1.7831,1.7836,1.7799,1.7868,1.7882,1.7962,1.8007,1.7929,1.7935,1.8177,1.8181,1.8186,1.8228,0,0,0,0,0,0,1.759,1.761,1.7643,1.7686,1.7706,1.7814,1.777,1.7774,1.7806,1.7802,1.7851,1.7857,1.7867,1.7953,1.7969,1.8014,1.794,1.8173,1.8179,1.8184,1.8223,1.8234,1.8243,0,0,0,0,0,1.7583,1.7652,1.7644,1.7661,1.7747,1.7817,1.7828,1.7837,1.7809,1.7844,1.7868,1.7855,1.7999,1.7961,1.7979,1.8027,1.817,1.8177,1.8184,1.8219,1.8232,1.8243,0,0,0,0,0,0,1.7614,1.7657,1.765,1.7734,1.7772,1.7813,1.7857,1.785,1.7898,1.7893,1.7903,1.7914,1.7997,1.802,1.7977,1.812,1.8081,1.8092,1.8102,1.8114,1.8124,1.8117,1.7945,0,0,0,0,0,1.763,1.768,1.7717,1.7788,1.7807,1.7829,1.786,1.7863,1.7903,1.792,1.7949,1.799,1.8045,1.8081,1.8133,1.8227,1.8239,1.8269,1.8279,1.8287,1.8296,1.835,1.8365,1.821,1.821,1.8209,0,0,1.7664,1.7695,1.7726,1.7795,1.7824,1.7879,1.7843,1.7901,1.7943,1.7929,1.8007,1.803,1.8077,1.8165,1.8206,1.8187,1.8342,1.8295,1.8301,1.8306,1.8359,1.8374,1.8387,1.8214,1.8213,1.8213,0,0,1.7755,1.7782,1.7845,1.7876,1.7921,1.7936,1.7951,1.7995,1.8009,1.8087,1.8079,1.813,1.8223,1.8258,1.8288,1.8396,1.8388,1.8413,1.8465,1.8518,1.853,1.8541,1.8582,1.8596,1.8422,1.8422,1.8422,0,1.7793,1.7873,1.7879,1.794,1.7972,1.7961,1.8027,1.8057,1.8118,1.8141,1.8119,1.8238,1.8269,1.8367,1.8393,1.8417,1.8437,1.8407,1.8527,1.8538,1.8549,1.8588,1.8603,1.8425,1.8425,1.8424,1.8424,0,1.7918,1.7975,1.8021,1.8079,1.8116,1.8179,1.8197,1.8235,1.8236,1.8254,1.8335,1.8372,1.8433,1.8456,1.8458,1.8556,1.8543,1.8524,1.8486,1.8566,1.8604,1.8618,1.8429,1.8428,1.8427,1.8427,0,0,1.803,1.8092,1.8109,1.8136,1.8187,1.8232,1.8296,1.8354,1.8387,1.843,1.8486,1.8567,1.8551,1.8585,1.8591,1.8637,1.8724,1.8614,1.8615,1.8634,1.8837,1.8851,1.8868,1.8718,1.8721,1.8724,1.8834,0,1.8127,1.8237,1.8246,1.8347,1.8401,1.8393,1.8449,1.8488,1.8508,1.8558,1.858,1.8638,1.8611,1.8632,1.8677,1.8703,1.8765,1.8696,1.8774,1.8776,1.8763,1.8887,1.8902,1.9004,1.8848,1.885,1.8852,0,1.8254,1.83,1.8406,1.8452,1.8475,1.8525,1.8581,1.8628,1.8674,1.8685,1.8724,1.8725,1.8794,1.8753,1.885,1.8803,1.8836,1.8854,1.8858,1.8867,1.8819,1.8901,1.9037,1.9053,1.8874,1.8873,1.8871,0,1.8327,1.8416,1.8492,1.8515,1.857,1.8606,1.8631,1.8673,1.8709,1.8759,1.8782,1.884,1.8872,1.8918,1.8936,1.8903,1.9034,1.8993,1.9047,1.9047,1.9076,1.9074,1.922,1.9095,1.9094,1.9094,1.9094,0,1.8435,1.8501,1.8526,1.8572,1.8647,1.8658,1.8733,1.8756,1.8795,1.8848,1.8845,1.8896,1.8915,1.897,1.8984,1.9065,1.9079,1.9092,1.9095,1.9093,1.9092,1.9115,1.9109,1.9098,1.9097,1.9096,1.9096,0,1.8529,1.8548,1.863,1.8676,1.8689,1.8742,1.8782,1.8829,1.8848,1.8916,1.8933,1.8964,1.9029,1.9051,1.9129,1.9139,1.9234,1.923,1.9218,1.9219,1.9273,1.9268,1.9441,1.9465,1.9322,1.9323,1.9324,0,1.8597,1.8648,1.8699,1.8733,1.8759,1.8815,1.8852,1.8866,1.8905,1.8962,1.9003,1.9066,1.9118,1.9223,1.9254,1.9315,1.9314,1.9371,1.9323,1.9321,1.9318,1.9315,1.9322,1.938,1.9381,1.9382,1.9383,0,1.8717,1.8724,1.8776,1.8832,1.8875,1.892,1.8963,1.8993,1.9014,1.9058,1.9124,1.9164,1.9245,1.9309,1.9372,1.9401,1.9397,1.9398,1.9414,1.9413,1.9404,1.9412,1.9243,1.9394,1.9393,1.9392,1.9391,1.9391,1.8802,1.8847,1.8891,1.8949,1.8983,1.9025,1.9072,1.9097,1.9151,1.9217,1.9223,1.9295,1.9342,1.9426,1.9458,1.9516,1.9501,1.9524,1.953,1.9536,1.9541,1.9394,1.9528,1.9527,1.9527,1.9527,1.9527,0,1.8923,1.8951,1.9004,1.9066,1.9113,1.9103,1.9152,1.9193,1.9255,1.9299,1.935,1.9427,1.9491,1.9528,1.9592,1.9632,1.9632,1.9649,1.9647,1.9654,1.955,1.953,1.9647,1.9647,1.9647,1.9647,1.9647,1.9647,1.8991,1.9069,1.9082,1.9178,1.9206,1.9275,1.9304,1.9344,1.9379,1.9465,1.9517,1.954,1.9583,1.965,1.971,1.9719,1.9744,1.9762,1.9771,1.9673,1.9661,1.9649,1.9631,1.9767,1.9767,1.987,1.9871,1.9872]},{"header":{"parameterUnit":"m.s-1","parameterCategory":1,"la1":30.2991,"la2":30.254,"lo1":-89.0895,"lo2":-89.0444,"dy":0.0017,"dx":0.0017,"nx":28,"ny":28,"refTime":"2023-09-15T21:00:00:Z","depth":0,"parameterNumber":3,"parameterNumberName":"V-component_of_WINDS"},"data":[0,0,0,0,0,0,0,0,0,0,0,0,0,0,0,0,0,0,0,0,0,0,0,0,0,0,0,0,0,0,0,0,0,0,0,0,0,0,0,0,0,0,0,0,0,0,0,0,0,0,0,0,0,0,0,0,0,0,-1.9618,-1.9617,0,-1.9477,-1.9476,-1.9474,-1.9401,-1.9401,-1.9401,-1.9401,-1.9245,-1.9241,-1.9237,0,0,0,0,0,0,0,0,0,0,0,0,0,-1.9813,-1.981,-1.9618,-1.9617,-1.9615,-1.9477,-1.9475,-1.9473,-1.9401,-1.9401,-1.9401,-1.9401,-1.9246,-1.9241,-1.9236,0,0,0,0,0,0,0,0,0,0,0,0,0,-1.9705,-1.9809,-1.9619,-1.9562,-1.9556,-1.9478,-1.9475,-1.9473,-1.9401,-1.9401,-1.9401,-1.9401,-1.9248,-1.9242,-1.9236,-1.9199,0,0,-1.9217,-1.9214,0,0,0,0,0,0,0,0,-1.9712,-1.9698,-1.9572,-1.9566,-1.9559,-1.9457,-1.9487,-1.9381,-1.9401,-1.946,-1.9401,-1.9401,-1.9315,-1.9303,-1.9276,-1.9192,-1.9185,-1.9216,-1.9212,-1.921,-1.9208,0,0,0,0,0,0,0,-1.9719,-1.9704,-1.9562,-1.9571,-1.9562,-1.954,-1.9525,-1.9466,-1.9389,-1.9454,-1.9449,-1.9434,-1.9311,-1.9282,-1.9272,-1.9183,-1.9216,-1.9211,-1.9207,-1.9205,-1.9057,-1.9057,0,0,0,0,0,0,-1.9737,-1.9711,-1.9567,-1.9558,-1.9637,-1.9537,-1.952,-1.9489,-1.9389,-1.9374,-1.9434,-1.9431,-1.9293,-1.9279,-1.9266,-1.9215,-1.921,-1.9204,-1.92,-1.9058,-1.9057,-1.9057,0,0,0,0,0,0,-1.9742,-1.9725,-1.9572,-1.9633,-1.9612,-1.9534,-1.95,-1.9487,-1.9458,-1.9374,-1.9359,-1.942,-1.9292,-1.9275,-1.9216,-1.9209,-1.9201,-1.9196,-1.9058,-1.9058,-1.9057,-1.9114,0,0,0,0,0,0,-1.9748,-1.9727,-1.9716,-1.9633,-1.9609,-1.9529,-1.95,-1.9484,-1.9449,-1.9444,-1.9357,-1.9342,-1.9291,-1.9226,-1.921,-1.92,-1.9191,-1.9058,-1.9058,-1.9057,-1.9113,-1.9116,-1.9119,0,0,0,0,0,-1.9755,-1.9735,-1.9716,-1.9698,-1.9593,-1.9529,-1.9514,-1.9459,-1.9449,-1.9435,-1.938,-1.9345,-1.9213,-1.9221,-1.9202,-1.919,-1.9058,-1.9058,-1.9057,-1.9111,-1.9115,-1.9119,0,0,0,0,0,0,-1.9815,-1.9724,-1.9701,-1.9655,-1.9601,-1.9517,-1.9497,-1.9465,-1.941,-1.9407,-1.9337,-1.9317,-1.9265,-1.9221,-1.9232,-1.9148,-1.9131,-1.9127,-1.9179,-1.9182,-1.9185,-1.9196,-1.9186,0,0,0,0,0,-1.9824,-1.9783,-1.9703,-1.967,-1.9645,-1.9576,-1.9546,-1.9508,-1.9447,-1.9423,-1.9364,-1.9303,-1.9247,-1.9212,-1.9156,-1.9106,-1.9084,-1.9088,-1.9091,-1.9094,-1.9091,-1.9059,-1.9059,-1.9056,-1.9056,-1.9056,0,0,-1.984,-1.9785,-1.9763,-1.9681,-1.9635,-1.959,-1.9557,-1.9511,-1.9476,-1.9414,-1.9357,-1.9311,-1.9238,-1.9184,-1.9156,-1.9145,-1.9087,-1.9094,-1.9097,-1.9092,-1.9058,-1.9059,-1.9059,-1.9055,-1.9055,-1.9055,0,0,-1.9847,-1.9802,-1.9769,-1.9724,-1.9655,-1.9609,-1.9601,-1.9522,-1.9491,-1.9432,-1.9385,-1.9339,-1.9246,-1.9196,-1.9158,-1.9144,-1.9108,-1.9127,-1.9143,-1.9112,-1.9112,-1.9112,-1.9105,-1.9104,-1.9124,-1.9125,-1.9125,0,-1.9874,-1.981,-1.9755,-1.9713,-1.9676,-1.9622,-1.9586,-1.9543,-1.9458,-1.9432,-1.9423,-1.9303,-1.925,-1.9182,-1.9179,-1.915,-1.9136,-1.9137,-1.9117,-1.9117,-1.9115,-1.9108,-1.9106,-1.9127,-1.9127,-1.9127,-1.9126,0,-1.9846,-1.9801,-1.9782,-1.9706,-1.9667,-1.9628,-1.9563,-1.953,-1.9495,-1.9449,-1.9388,-1.9323,-1.9252,-1.9233,-1.9197,-1.9158,-1.9154,-1.9132,-1.9113,-1.912,-1.9111,-1.9108,-1.9131,-1.913,-1.9129,-1.9129,0,0,-1.9887,-1.9781,-1.9775,-1.9739,-1.9659,-1.9621,-1.9577,-1.9512,-1.9484,-1.9426,-1.9386,-1.9307,-1.9286,-1.9243,-1.92,-1.9174,-1.9164,-1.9154,-1.9151,-1.9157,-1.9115,-1.9132,-1.913,-1.9141,-1.914,-1.9139,-1.9121,0,-1.9882,-1.9806,-1.9755,-1.9697,-1.9653,-1.96,-1.9561,-1.9506,-1.9461,-1.9414,-1.9362,-1.9307,-1.9284,-1.9258,-1.9229,-1.9172,-1.9155,-1.9173,-1.9098,-1.9096,-1.9118,-1.9126,-1.9144,-1.913,-1.9117,-1.9117,-1.9116,0,-1.9866,-1.9814,-1.9753,-1.9677,-1.9656,-1.9623,-1.9558,-1.9515,-1.9449,-1.9418,-1.937,-1.9327,-1.9274,-1.9261,-1.9185,-1.9198,-1.9164,-1.9131,-1.9129,-1.9119,-1.9107,-1.9115,-1.9124,-1.9122,-1.9111,-1.9111,-1.9112,0,-1.9901,-1.9815,-1.9767,-1.9738,-1.9648,-1.9625,-1.9586,-1.952,-1.9484,-1.9425,-1.94,-1.9334,-1.9298,-1.9246,-1.9185,-1.9182,-1.9114,-1.9096,-1.9084,-1.9085,-1.9072,-1.9073,-1.9074,-1.9052,-1.9052,-1.9052,-1.9052,0,-1.99,-1.9864,-1.9782,-1.9753,-1.971,-1.9649,-1.9607,-1.9562,-1.9504,-1.9462,-1.941,-1.937,-1.9292,-1.9242,-1.9193,-1.9136,-1.912,-1.909,-1.9077,-1.9095,-1.9098,-1.9071,-1.907,-1.9051,-1.9051,-1.9051,-1.9051,0,-1.9931,-1.9875,-1.982,-1.974,-1.9718,-1.969,-1.9619,-1.9586,-1.9539,-1.9485,-1.9469,-1.9393,-1.933,-1.9265,-1.9179,-1.9145,-1.909,-1.9073,-1.9114,-1.9107,-1.9097,-1.9099,-1.908,-1.9073,-1.9057,-1.9057,-1.9057,0,-1.9935,-1.9907,-1.9824,-1.9794,-1.9757,-1.9709,-1.9672,-1.961,-1.9573,-1.9495,-1.947,-1.9405,-1.935,-1.9252,-1.9185,-1.9119,-1.9098,-1.9096,-1.9088,-1.9105,-1.9096,-1.9099,-1.9094,-1.9099,-1.91,-1.91,-1.91,0,-1.9945,-1.9919,-1.987,-1.9811,-1.977,-1.9719,-1.9666,-1.9643,-1.9569,-1.9529,-1.9467,-1.9424,-1.9338,-1.9272,-1.9198,-1.9151,-1.9112,-1.9104,-1.9097,-1.9114,-1.9139,-1.9124,-1.9121,-1.9104,-1.9104,-1.9104,-1.9103,-1.9103,-1.9962,-1.9934,-1.9872,-1.9818,-1.9772,-1.9724,-1.9689,-1.9638,-1.9587,-1.9515,-1.9479,-1.9417,-1.9347,-1.9244,-1.9199,-1.9145,-1.9134,-1.9124,-1.9122,-1.912,-1.9124,-1.9148,-1.9131,-1.9131,-1.9131,-1.9131,-1.9131,0,-1.9969,-1.9926,-1.9878,-1.9807,-1.9764,-1.9735,-1.9674,-1.9639,-1.9586,-1.9527,-1.9475,-1.9401,-1.9337,-1.9266,-1.9197,-1.9167,-1.9147,-1.9151,-1.9152,-1.9141,-1.9139,-1.9151,-1.9168,-1.9168,-1.9168,-1.9168,-1.9168,-1.9168,-1.9968,-1.9919,-1.9885,-1.9811,-1.9767,-1.9709,-1.9676,-1.9629,-1.9582,-1.9504,-1.9453,-1.9408,-1.9343,-1.9268,-1.9206,-1.9186,-1.9162,-1.9171,-1.9146,-1.9145,-1.9142,-1.9139,-1.915,-1.9167,-1.9167,-1.9152,-1.9152,-1.9152]}]]